STARLINK-32352, 61847

Orbit data source: Space-Track

STARLINK-32352, 61847 is a payload satellite owned by SpaceX/Seattle (US) in LEO that was launched on Thu, 07 Nov 2024 UTC via an FALCON 9 launch vehicle from the Air Force Eastern Test Range (AFETR). Payload-class satellites include a variety of spacecraft equipped with specific instruments for various scientific and technological missions. These include communications satellites like Starlink; space stations such as the ISS; scientific satellites like the Hubble; Earth observation satellites from companies like Planet Labs, Umbra, and HawkEye 360; GPS; miniature CubeSats for education and research; and military/defense satellites.

Loading next visibility...
Identifier
61847, 2024-202C
Orbit
LEO
Country
Flag of USUS
Related business
Manufacturer
SpaceX/Seattle
Mission
Operational Commercial Communications
Bus & Motor
STARLINK V2M, Unknown motor
Mass
730 kg wet, ~700 kg dry
Launch date (UTC)
2024-11-07 (1 year ago)
Launch vehicle
FALCON 9
Launch site
Air Force Eastern Test Range (AFETR)
Object type
Payload
Rocket body
Debris
Shape & HBR
Box + 2 Pan, 17.7 m
Radar Cross Section
33.884 m², Large (>1 m²)

Expand to show TLE details & history
Last TLE update: 11 hours ago

TLE from 11 hours ago
0 STARLINK-32352
1 61847U 24202C   26035.11621505 -.00002320  00000-0 -74880-4 0  9993
2 61847  43.0097  56.3007 0001042 268.3657  91.7075 15.27551632 70335
Epoch: 2026-02-04T02:47Z
TLE epoch observation values (Epoch: 2026-02-04T02:47:20.980Z)
Latitude
-0.00004°
Longitude
-119.82418°
Altitude
482.932 km
Speed
7.626 km/s
True Right ascension
03h 45m 12s
True Declination
0° 00' 00"
Sunlit
Object was in daylight at epoch
Visualization orbit readout
Latitude
Unknown
Longitude
Unknown
Altitude
Unknown
Speed
Unknown
Apparent Right ascension
Unknown
Apparent Declination
Unknown
Sunlit
N/A
Visualization observer readout
Local Sidereal Time
15:53:13
Azimuth
Unknown
Elevation
Unknown
Doppler factor
Unknown
Orbital elements
Apogee altitude
485.793 km
Perigee altitude
484.362 km
Semi-major axis
6,863.215 km
Eccentricity
0.0001
Inclination
43.0097°
RAAN
56.3007°
Arg. of periapsis
268.3657°
True anomaly
91.71944°
Mean anomaly
91.7075°
Eccentric anomaly
91.71347°
Mean motion
3.81726 °/min
Orbital period
94.31 mins
BSTAR
-0.00007488
Loading maneuver chart data...
Computing Atmospheric mass density...
Loading historical data...
Loading historical data...
Loading historical data...
Loading historical data...
Loading historical data...
Loading historical data...
Loading historical data...

Documentation

Showing up to 5 results
|